Regional Weather Roundup
Issued by NWS

Home | Current Version | Previous Version | Text Only | Print | Product List | Glossary On
Versions: 1 2 3 4 5 6 7 8 9 10 11 12 13 14 15 16 17 18 19 20 21 22 23 24 25 26 27 28 29 30 31 32 33 34 35 36 37 38 39 40 41 42 43 44 45 46 47 48 49 50
000
ASUS45 KTFX 270419
RWRMT
MONTANA HOURLY WEATHER ROUNDUP
NATIONAL WEATHER SERVICE GREAT FALLS MT
919 PM MST MON JAN 26 2015

NOTE: "FAIR" INDICATES FEW OR NO CLOUDS BELOW 12000 FEET WITH NO
SIGNIFICANT WEATHER AND/OR OBSTRUCTIONS TO VISIBILITY.

* THESE STATIONS ARE NOT UNDER NWS QUALITY CONTROL. THEY DO NOT
   REPORT WEATHER SUCH AS PRECIPITATION OR FOG.

MTZ001>007-043-270500-
WEST OF THE DIVIDE
CITY           SKY/WX    TMP DP  RH WIND       PRES   REMARKS
KALISPELL      PTCLDY    25  23  92 CALM      30.02R
MISSOULA       CLEAR     34  28  79 CALM      30.07R
BUTTE          PTCLDY    32  27  82 VRB3      30.11F
MULLAN PASS    CLEAR     45  27  49 SW10G23   30.06F
* ANACONDA     CLEAR     50  25  38 SW5        N/A
* ESSEX        N/A       30  28  92 NE2        N/A
* EUREKA APT   PTCLDY    36  30  79 CALM      29.99S
* HAMILTON APT PTCLDY    46  28  50 E8        30.04F
* LIBBY APT    PTCLDY    28  27  96 CALM      30.02F
* LINCOLN      N/A       44  24  45 SW3        N/A
* LOOKOUT PASS N/A       40  30  68 E1         N/A
* POLSON       N/A       44  30  58 S1         N/A
* RONAN APT    CLEAR     34  34 100 N/A        N/A
* SEELEY LAKE  N/A       29  25  85 NE2        N/A
* THOMP F APT  CLEAR     39  24  55 N3G8       N/A
$$

MTZ008-052>055-270500-
SOUTHWEST MONTANA
CITY           SKY/WX    TMP DP  RH WIND       PRES   REMARKS
BOZEMAN        CLEAR     32  28  85 SE6       30.09F WCI  26
DILLON         CLEAR     41  28  60 S8        30.13F
* W YELLOWSTON CLEAR     22  21  96 N/A        N/A
* THREE FORKS  CLEAR     30  30 100 N/A        N/A
* BOULDER HILL N/A       45  24  44 SW7G12     N/A
* MONIDA PASS  N/A       32  30  92 E6         N/A   WCI  26
* RAYNOLDS PAS N/A       31  17  56 S12G17     N/A   WCI  22
* WHITEHALL    N/A       46  34  63 W5G10      N/A
* WISE RIVER   N/A       34  27  76 SW1G6      N/A
$$

MTZ009>010-012-014-046-048-049-054-270500-
EAST SLOPES AND CENTRAL MONTANA
CITY           SKY/WX    TMP DP  RH WIND       PRES   REMARKS
GREAT FALLS    CLEAR     52  28  40 SW15      29.93S
HELENA         CLEAR     36  30  79 W5        30.03R WCI  32
MALMSTROM AFB  PTCLDY    50  30  46 SW14      29.92S
* CONRAD       MOCLDY    36  30  79 S7         N/A   WCI  30
* DEARBORN     N/A       49  31  50 S12        N/A
* EAST GLACIER N/A       53  21  29 N3G14      N/A
* MONARCH      N/A       47  19  33 S10        N/A
* PENDROY      N/A       50  26  39 SW2        N/A
* ROGERS PASS  N/A       50  23  35 SE10G20    N/A
* SWEET GRASS  N/A       50  28  43 SW20       N/A
* WHITE SULPH  N/A       48  27  44 S13G18     N/A
$$

MTZ011-013-016-021-035-040-045-047-050-051-270500-
NORTH CENTRAL MONTANA
CITY           SKY/WX    TMP DP  RH WIND       PRES   REMARKS
HAVRE          PTCLDY    41  32  70 SW10      29.83S
LEWISTOWN      CLEAR     50  28  43 SW20      29.93F
* N BAR RANCH  CLEAR     55  23  29 VRB6G13   29.96F
* CHINOOK      PTCLDY    36  32  85 CALM      29.84S
* CHESTER      N/A       36  31  82 NE4        N/A
* DENTON       N/A       47  28  48 SW3G12     N/A
* GEYSER       N/A       57  26  30 W11G17     N/A
* JUDITH GAP   N/A       47  27  46 SW9        N/A
* LOMA         N/A       48  33  56 W6         N/A
$$

MTZ017>020-022>027-061-062-270500-
NORTHEAST MONTANA
CITY           SKY/WX    TMP DP  RH WIND       PRES   REMARKS
GLASGOW        CLEAR     36  30  79 SE9       29.85F WCI  29
GLENDIVE       CLEAR     37  32  82 S5        29.90F WCI  33
JORDAN         CLEAR     32  28  85 CALM      29.87S
SIDNEY         CLEAR     32  30  92 CALM      29.91S
WOLF POINT     PTCLDY    32  28  85 CALM      29.87F
* BEAVER HILL  N/A       40  33  76 S11        N/A   WCI  33
* CIRCLE       N/A       40  32  73 N/A        N/A
* LINDSAY DVD  N/A       49  31  50 W6         N/A
* NAVAJO       N/A       38  33  82 W9         N/A   WCI  32
* PLENTYWOOD A MOCLDY    36  34  92 E6        29.87S WCI  31
* POPLAR APT   PTCLDY    36  34  92 N/A       29.87S
* SACO         N/A       33  28  82 E3         N/A
$$

MTZ028>042-056>058-270500-
SOUTHCENTRAL AND SOUTHEAST MONTANA
CITY           SKY/WX    TMP DP  RH WIND       PRES   REMARKS
BAKER          CLEAR     32  28  85 CALM      29.93F
BILLINGS       PTCLDY    52  27  38 SW25G32   29.99F
LIVINGSTON     CLEAR     57  25  29 SW24G37   30.04F
MILES CITY     CLEAR     43  32  65 SE9       29.90F
* BIG TIMBER A CLEAR     50  27  41 W10       30.04F
* FORSYTH APT  CLEAR     52  30  43 SW7       29.91S
* LAUREL APT   CLEAR     45  25  45 SW10G15    N/A
* ROUNDUP APT  CLEAR     46  28  50 S6         N/A
* ALZADA       N/A       42  32  68 NW4        N/A
* HYSHAM       N/A       50  26  39 W8         N/A
* LAME DEER    N/A       56  26  32 W6         N/A
* REED POINT   N/A       35  31  85 W1         N/A
* ROSCOE HILL  N/A       57  13  17 SW1        N/A
$$

REGIONAL REPORTS...DAKOTAS
CITY           SKY/WX    TMP DP  RH WIND       PRES   REMARKS
WILLISTON      PTCLDY    30  28  92 E3        29.88F
DICKINSON      PTCLDY    34  30  85 S8        29.90S WCI  27
BEACH          CLEAR     39  34  82 SW8       29.92S WCI  33
CROSBY         CLEAR     32  32 100 S6        29.89S WCI  26
TIOGA          CLEAR     27  27 100 E3        29.92S
WATFORD CITY   CLEAR     32  30  92 CALM      29.88S
BISMARCK       PTCLDY    30  30 100 NE5       29.98S WCI  25
GRAND FORKS    PTCLDY    25  21  85 E3        30.01R
FARGO          PTCLDY    28  25  89 NW3       30.02R
BUFFALO SD     CLEAR     43  32  65 W7        29.88S
RAPID CITY     CLEAR     36  27  70 CALM      29.98F
$$

REGIONAL REPORTS...WYOMING/IDAHO/WASHINGTON
CITY           SKY/WX    TMP DP  RH WIND       PRES   REMARKS
GILLETTE       CLEAR     50  28  43 SW17      30.03S
SHERIDAN       CLEAR     46  27  48 W6        30.00F
CODY           PTCLDY    36  27  70 CALM      30.12S
YELLOWSTONE LA MOCLDY    18  16  92 CALM      30.33S
SALMON         CLOUDY   N/A N/A N/A SE3       30.22F VSB 1/2
MULLAN PASS    CLEAR     45  27  49 SW10G23   30.06S
SAND POINT     FOG       32  32 100 CALM      30.03F VSB M1/4
SPOKANE        MOCLDY    37  36  96 CALM      29.99S
$$

REGIONAL REPORTS...ALBERTA
CITY           SKY/WX    TMP DP  RH WIND       PRES   REMARKS
CALGARY        N/A       39  30  70 SW3       29.73S
LETHBRIDGE     PTCLDY    41  30  65 SW8       29.80F
MEDICINE HAT   CLEAR     41  34  76 S12       29.73F
EDMONTON       CLOUDY    36  32  85 NE5       29.76R WCI  32
WATERTON GATE  N/A       55  23  29 SW25G38    N/A
CARDSTON       N/A       50  27  41 S5         N/A
MILK RIVER     N/A       41  32  70 S5         N/A
$$

REGIONAL REPORTS...SASKATCHEWAN
CITY           SKY/WX    TMP DP  RH WIND       PRES   REMARKS
SWIFT CURRENT  CLEAR     37  32  82 S10       29.78F WCI  30
REGINA         MOCLDY    32  30  92 E8        29.85S WCI  25
VAL MARIE      N/A       28  27  96 E1         N/A
ASSINIBOIA     N/A       34  30  85 SW3        N/A
CORONACH       N/A       30  28  92 NE1        N/A

$$




USA.gov is the U.S. government's official web portal to all federal, state and local government web resources and services.